CW6451 Weather Reports


Display with metric or nautical units.
time (UTC)temp
F
wind
direction
speed
MPH
gust
MPH
rain 1hr
in
rain 24hr
in
rain mn
in
humidity
%
barometer
mb
20260503230048 53 303 6.0 16.0 0.00 0.02 0.00 45 1009.0
20260503224540 54 293 7.0 17.0 0.00 0.02 0.00 43 1008.9
20260503223041 53 304 5.0 16.0 0.00 0.02 0.00 46 1008.8
20260503221538 53 285 9.0 19.0 0.00 0.02 0.00 45 1008.7
20260503220039 53 315 7.0 18.0 0.00 0.02 0.00 43 1008.4
20260503214536 53 344 8.0 16.0 0.00 0.02 0.00 46 1008.2
20260503213037 53 15 8.0 20.0 0.00 0.02 0.00 45 1008.1
20260503211544 54 280 8.0 18.0 0.00 0.02 0.00 44 1007.9
20260503210041 55 329 7.0 17.0 0.00 0.02 0.00 45 1007.6
20260503204537 55 323 6.0 17.0 0.00 0.02 0.00 46 1007.4
20260503203041 54 325 7.0 18.0 0.00 0.02 0.00 46 1007.3
20260503201538 54 299 8.0 20.0 0.00 0.02 0.00 46 1007.1
20260503200037 56 296 5.0 18.0 0.00 0.02 0.00 46 1006.9
20260503194537 53 280 10.0 22.0 0.00 0.02 0.00 45 1006.8
20260503193045 54 234 6.0 16.0 0.00 0.02 0.00 48 1006.8
20260503191539 54 17 8.0 19.0 0.00 0.02 0.00 45 1006.8
20260503190037 53 317 6.0 22.0 0.00 0.02 0.00 49 1006.8
20260503184555 53 352 7.0 15.0 0.00 0.02 0.00 50 1006.9
20260503183045 52 315 7.0 18.0 0.00 0.02 0.00 54 1007.0
20260503181542 53 315 5.0 14.0 0.00 0.02 0.00 52 1006.8
20260503180052 54 53 5.0 15.0 0.00 0.02 0.00 53 1006.8
20260503174542 54 355 6.0 15.0 0.00 0.02 0.00 56 1006.8
20260503173046 54 14 9.0 19.0 0.00 0.02 0.00 55 1006.9
20260503171537 52 342 10.0 22.0 0.00 0.02 0.00 59 1007.0
20260503081540 46 360 8.0 16.0 0.00 0.02 0.00 65 1007.6
20260503071543 46 30 5.0 13.0 0.00 0.02 0.00 65 1008.1
20260503060106 47 5 8.0 15.0 0.00 0.02 0.00 68 1009.2
20260503054539 47 16 7.0 17.0 0.00 0.02 0.00 73 1009.1
20260503053038 46 360 6.0 17.0 0.00 0.02 0.00 78 1009.3
20260503051540 45 349 6.0 12.0 0.00 0.02 0.00 87 1009.6
20260503050040 46 338 5.0 11.0 0.00 0.02 0.00 96 1009.6
20260503044537 47 338 1.0 3.0 0.00 0.02 0.00 98 1009.6
20260503043047 48 266 1.0 5.0 0.00 0.02 0.00 98 1010.2
20260503041538 48 271 0.0 4.0 0.00 0.02 0.00 98 1010.5
20260503040055 48 292 0.0 4.0 0.00 0.02 0.00 98 1010.4
20260503034544 48 0 0.0 3.0 0.00 0.02 0.02 97 1010.7
20260503033038 48 226 0.0 3.0 0.00 0.02 0.02 98 1010.6
20260503031537 48 225 0.0 3.0 0.00 0.02 0.02 98 1010.4
20260503030037 48 0 0.0 0.0 0.00 0.02 0.02 97 1010.4
20260503024538 48 0 0.0 2.0 0.00 0.02 0.02 97 1010.4
20260503023052 48 0 0.0 1.0 0.00 0.02 0.02 97 1010.6
20260503021550 48 173 0.0 2.0 0.00 0.02 0.02 97 1010.7
20260503020047 48 165 0.0 2.0 0.00 0.02 0.02 97 1010.8
20260503014537 48 166 0.0 3.0 0.01 0.02 0.02 97 1010.9
20260503013037 48 144 0.0 1.0 0.01 0.02 0.02 96 1011.1
20260503011546 48 0 0.0 5.0 0.01 0.02 0.02 96 1011.0
20260503010036 48 0 0.0 4.0 0.01 0.02 0.02 96 1010.9
20260503004610 49 143 1.0 6.0 0.01 0.01 0.01 96 1010.6
20260503003056 49 178 0.0 4.0 0.01 0.01 0.01 95 1010.8
20260503001542 49 0 0.0 2.0 0.01 0.01 0.01 95 1010.9
20260503000040 49 0 0.0 0.0 0.01 0.01 0.01 95 1010.9
20260502234544 49 0 0.0 0.0 0.00 0.00 0.00 95 1010.8
20260502233044 49 0 0.0 2.0 0.00 0.00 0.00 94 1010.8
20260502231540 49 0 0.0 2.0 0.00 0.00 0.00 94 1010.8